Location: Adavinekkalam
(16.6301°N, 80.7229°E)
Time: 15:24:32
(UTC+00:00)

Cosmos 1862 - Pass Details

Date: 15 May 2026
Orbit: 464 x 477 km, 82.5° (Epoch: 10 June)

Event Time Altitude Azimuth Distance (km) Brightness Sun altitude
Rises 13:37:54 0° 350° (N) 2,485 7.2 -9.1°
Reaches altitude 10° 13:40:00 10° 346° (NNW) 1,609 6.2 -9.6°
Maximum altitude 13:43:27 59° 267° (W) 537 3.6 -10.3°
Drops below altitude 10° 13:46:55 10° 186° (S) 1,609 5.5 -11.1°
Sets 13:49:00 0° 183° (S) 2,484 6.4 -11.5°
